Temp_Advection
nan nan nan nan nan nan nan nan nan nan nan nan nan nan nan nan nan nan nan nan nan nan nan nan nan nan nan nan nan nan nan nan nan nan nan nan nan nan nan nan nan nan nan
nan -0 0 0 0 -0 0 0 1 1 0 1 1 -0 0 1 1 1 0 0 -0 -1 -1 -0 0 1 1 1 1 0 0 0 0 0 0 0 1 1 1 0 -0 -0 nan
nan 0 0 -0 0 1 1 1 1 0 1 1 0 0 0 0 0 -0 -0 0 0 -0 -0 -0 0 0 1 1 1 0 0 1 0 0 0 1 1 1 1 0 0 0 nan
nan 0 0 0 1 1 0 0 0 0 0 0 0 0 0 0 0 0 0 0 -0 0 0 0 0 1 1 1 -0 0 1 0 -0 1 1 0 1 1 0 0 0 0 nan
nan 0 0 1 1 0 0 0 0 0 0 0 0 0 0 0 0 0 0 0 0 0 0 0 1 1 0 -0 -0 0 0 0 1 1 0 0 1 0 0 0 1 0 nan
nan 1 1 1 0 0 1 0 0 0 0 0 0 0 0 0 0 0 0 0 0 -0 -0 0 -0 -0 -1 -0 0 0 0 1 1 0 0 0 1 0 0 1 0 0 nan
nan 1 0 0 0 0 0 0 0 0 0 0 0 0 0 0 0 0 0 0 0 0 0 -0 -0 -0 -0 -0 -0 0 1 1 1 0 0 0 0 0 0 0 0 0 nan
nan 0 0 0 0 0 0 -0 0 0 0 0 0 -0 0 0 0 0 0 0 0 0 0 0 0 -0 -0 0 0 0 0 0 0 0 1 1 0 0 0 0 0 1 nan
nan 0 0 0 0 0 0 0 0 0 0 0 0 0 0 0 0 0 0 0 -0 0 0 0 0 0 0 0 0 0 0 0 0 0 0 0 -0 -0 0 0 1 0 nan
nan 0 0 0 0 0 0 0 0 0 0 0 0 0 0 0 0 0 0 0 0 0 0 0 0 0 0 0 0 0 0 0 -0 0 0 0 0 0 1 0 0 0 nan
nan 0 0 0 0 0 0 0 0 0 0 0 0 0 0 0 0 0 0 0 0 0 0 0 0 0 0 0 0 0 -0 -0 -0 0 0 0 0 0 0 0 0 0 nan
nan 0 0 0 0 0 0 0 0 0 0 0 0 0 0 0 0 0 0 0 0 0 0 0 0 0 0 -0 -0 0 -0 0 0 1 0 -0 0 0 0 0 0 0 nan
nan 0 0 0 0 0 0 0 0 0 0 0 0 0 0 0 0 0 0 0 0 0 0 0 0 -0 -0 0 0 -0 -0 0 0 0 -0 -0 0 0 0 -0 -0 0 nan
nan -0 0 0 0 0 0 0 0 0 0 0 0 0 0 0 0 0 0 0 0 0 1 0 -0 -0 -0 -0 0 0 0 0 0 0 -0 -0 0 0 -0 -0 0 0 nan
nan 0 0 0 0 0 0 0 0 0 0 0 0 0 0 0 0 0 0 0 0 1 0 -0 -0 -0 -0 0 -0 -0 0 0 0 0 -0 0 0 -0 -0 0 0 0 nan
nan 0 0 0 0 0 -0 0 0 0 0 0 0 0 -0 0 0 0 0 0 1 1 -1 -1 -0 -0 -0 -0 -0 0 0 -0 0 0 -0 -0 -0 0 0 0 0 0 nan
nan 0 0 0 0 -0 -0 0 0 0 0 0 0 0 0 0 0 0 0 0 1 0 -1 -1 -0 -0 -0 0 0 0 0 0 0 -0 -0 -0 0 0 -0 -0 0 0 nan
nan 0 0 0 0 0 0 0 -0 -0 0 0 0 0 -0 0 0 0 1 1 1 -0 -1 -1 -0 0 0 0 0 0 0 -0 -0 -0 0 0 -0 -0 -0 0 0 0 nan
nan 0 0 0 0 0 0 -0 0 -0 -0 0 0 0 0 0 0 0 0 0 -0 -0 1 -0 -1 0 0 0 0 -0 -0 -0 0 -0 0 0 0 -0 0 0 0 0 nan
nan 0 0 0 0 0 0 0 -0 -0 -0 0 0 0 0 0 -0 0 0 0 -0 -0 -0 -0 0 0 -0 -0 -0 0 -0 -0 -0 -0 0 0 0 0 -0 0 0 0 nan
nan 0 -0 0 0 0 0 0 0 -0 -0 -0 0 0 0 0 0 0 -0 -0 -0 -0 -0 -0 -0 -1 -0 0 0 -0 -0 -0 -0 -0 0 0 0 -0 0 0 0 0 nan
nan -0 0 0 -0 -0 -0 0 0 -0 -0 -0 -0 0 0 -0 0 0 0 0 0 0 0 -0 -0 -0 -0 0 0 0 -0 -0 -0 0 0 0 0 0 0 0 0 0 nan
nan -0 -0 0 0 -0 -0 -0 -0 -0 -0 -0 -0 -0 0 0 0 -0 0 0 0 -0 0 -0 -0 -0 -0 -0 -0 -0 -0 -0 0 0 0 0 0 0 0 0 0 0 nan
nan 0 0 0 -0 -0 -0 -0 -0 -0 -0 -0 -0 -0 -0 -0 -0 -0 -0 -0 -0 -0 0 -0 -0 -0 -0 -0 -0 -0 -0 0 0 0 1 0 0 0 0 0 -0 0 nan
nan -0 -0 -0 0 0 0 -0 -0 -0 -0 -0 -0 -0 -0 -0 -0 -0 -0 -0 -0 -0 -0 -0 -0 -0 -0 -0 -0 -0 -0 0 0 0 0 0 0 0 0 -0 0 0 nan
nan nan nan nan nan nan nan nan nan nan nan nan nan nan nan nan nan nan nan nan nan nan nan nan nan nan nan nan nan nan nan nan nan nan nan nan nan nan nan nan nan nan nan
Wind_Speed
24 21 19 18 19 21 21 23 22 22 19 22 24 29 28 26 28 29 28 29 31 33 33 32 31 32 32 28 29 28 27 30 29 27 31 19 19 19 17 19 16 16 15
23 19 19 17 22 24 26 29 31 32 31 33 32 31 32 32 31 31 29 28 28 29 30 31 32 31 31 28 28 26 27 27 28 26 25 22 21 20 19 16 15 15 16
21 21 19 18 18 18 17 18 23 24 21 20 19 20 19 20 21 23 24 25 26 27 28 29 28 27 26 24 24 27 23 27 29 27 30 25 21 21 18 16 17 17 16
19 17 17 16 15 13 11 11 12 13 14 15 15 15 16 17 18 19 21 23 25 26 27 26 25 24 23 20 23 24 24 23 26 28 25 20 20 18 18 17 16 14 15
16 16 16 15 13 11 11 12 13 12 12 12 10 10 11 12 14 16 19 21 23 24 24 24 23 22 19 21 22 21 23 24 22 22 21 21 20 19 18 16 15 15 15
15 14 14 14 14 13 12 13 11 10 9 8 7 7 8 9 11 13 15 18 20 21 20 21 20 19 20 22 20 21 24 21 22 20 21 22 22 18 18 17 16 17 17
15 15 15 15 14 13 13 12 11 9 8 7 8 9 10 11 13 13 14 16 18 18 18 18 19 19 20 21 22 23 21 21 20 18 22 22 21 18 16 16 16 16 18
14 14 13 13 13 12 12 11 10 10 10 10 11 13 14 15 14 14 14 14 15 18 18 18 17 18 18 18 18 18 18 19 20 21 20 18 17 16 15 15 15 16 17
12 11 12 12 12 12 13 13 13 13 12 13 14 16 16 16 15 15 15 14 14 16 17 16 15 16 16 16 16 17 17 19 19 19 17 17 17 16 16 15 15 16 16
11 11 12 12 12 13 13 13 13 13 14 14 15 15 15 16 16 16 15 15 14 14 14 14 14 15 15 15 14 14 13 15 15 15 17 18 18 17 16 15 14 13 14
13 14 14 13 13 13 13 13 14 15 15 16 16 16 16 17 17 16 15 15 13 13 13 13 13 14 15 14 13 13 13 14 15 16 17 16 15 13 12 11 11 11 12
14 14 14 14 14 14 14 15 16 16 17 18 17 16 16 15 16 17 15 15 16 14 14 14 13 11 11 11 11 13 14 15 16 16 16 14 13 12 10 9 9 10 10
14 14 15 15 14 14 15 15 16 16 17 17 18 18 16 14 17 18 15 16 17 14 14 13 11 9 12 13 12 12 14 13 15 15 14 12 11 11 10 9 10 10 10
14 13 13 13 13 14 14 15 15 15 16 17 18 18 16 15 15 17 18 16 17 17 14 10 11 13 13 13 14 14 14 13 13 13 13 12 11 10 8 9 8 9 11
8 10 11 12 13 12 13 14 15 16 17 17 18 17 17 17 15 18 19 16 16 14 11 14 16 16 15 14 14 14 13 14 14 13 12 10 9 9 9 8 8 9 9
9 10 11 12 13 13 13 14 17 17 16 16 17 18 18 18 17 19 19 16 17 16 18 18 18 17 16 15 14 14 15 14 13 13 12 10 10 10 10 9 9 8 7
8 9 11 12 14 14 14 14 14 13 14 15 17 18 18 17 18 17 17 17 17 18 22 19 20 19 16 16 15 15 15 13 13 14 13 11 11 11 12 10 9 10 8
7 9 11 12 13 13 13 13 13 13 13 13 15 17 17 17 17 17 17 18 21 23 24 20 22 20 18 18 17 17 15 16 16 14 15 14 14 14 15 13 12 12 11
9 10 10 11 13 14 14 15 14 14 15 15 16 16 17 17 17 18 18 22 25 26 26 24 24 22 21 19 18 18 18 17 17 17 17 17 17 18 17 16 16 16 16
13 14 14 13 13 14 15 16 17 15 15 16 17 16 14 16 18 20 23 24 26 27 28 27 26 25 23 22 22 21 21 21 21 21 20 19 19 20 20 19 19 19 19
14 14 14 15 15 14 16 18 18 18 17 17 17 15 13 16 18 20 22 24 26 27 28 28 27 27 24 23 23 24 25 25 25 24 24 23 22 23 22 22 21 21 21
14 15 15 17 17 17 17 18 18 18 17 17 17 15 13 16 18 18 20 22 23 24 26 27 26 25 28 26 26 26 27 27 27 27 28 27 26 26 26 25 25 24 23
13 13 14 14 15 15 16 16 16 15 15 16 16 16 15 16 17 18 19 19 20 22 22 24 25 26 27 29 29 29 29 29 27 27 29 29 30 30 29 29 28 28 26
11 10 10 11 11 12 12 13 14 14 15 15 16 16 16 16 16 17 18 18 19 20 21 23 25 27 27 28 30 32 32 29 28 29 29 31 32 32 32 32 32 31 29
9 9 9 10 10 10 10 11 12 13 14 14 15 15 16 17 17 18 18 18 19 20 21 22 24 25 26 27 29 31 33 32 32 32 33 34 35 34 35 35 35 33 31
10 10 10 10 10 10 11 11 12 13 14 14 15 15 15 16 17 18 18 18 19 20 21 23 24 25 26 26 27 28 29 31 33 34 35 38 39 38 38 38 37 36 35
Wind_Direction
203 206 211 229 234 239 239 242 242 246 244 252 255 253 248 249 249 251 254 259 266 267 266 267 272 275 273 265 261 261 258 257 270 257 256 246 255 266 274 287 272 267 262
211 217 225 237 250 256 256 249 248 249 248 252 250 246 247 250 257 260 259 258 258 260 265 268 270 271 269 264 258 261 250 262 260 259 256 249 253 261 274 276 266 262 263
229 237 242 244 250 253 248 242 240 240 236 234 236 241 243 244 246 250 256 260 263 266 268 268 269 266 265 261 256 250 249 247 257 258 243 246 253 261 264 257 257 258 255
225 233 234 235 229 218 223 226 220 218 219 222 229 237 245 251 257 263 267 268 269 270 270 271 269 265 262 256 254 255 253 255 255 247 243 247 254 256 256 252 250 253 249
218 216 216 217 215 215 218 218 214 215 218 223 230 238 250 260 266 271 275 276 275 275 274 272 271 267 261 256 251 252 252 246 242 241 248 253 253 255 254 248 239 241 243
206 206 206 208 210 212 215 219 218 218 224 229 244 257 268 279 290 298 300 292 287 283 280 275 271 263 258 254 251 248 240 248 251 249 254 256 257 248 240 236 234 236 242
196 200 203 206 210 211 212 214 215 221 234 247 258 271 283 290 296 298 311 306 300 293 285 284 277 267 261 258 256 250 244 242 244 249 262 260 250 242 235 233 238 242 249
195 202 205 207 208 209 213 222 228 234 242 256 274 286 289 289 290 286 285 285 283 288 284 276 269 261 256 257 256 259 254 253 254 253 249 243 239 233 231 234 238 242 249
199 203 208 213 217 223 230 235 238 245 255 266 274 278 277 274 280 283 284 275 281 278 277 269 260 256 252 252 253 251 251 248 242 237 235 236 236 238 240 241 240 242 246
211 216 220 225 230 236 241 246 250 254 264 271 275 276 280 284 286 282 281 281 280 276 265 258 255 253 250 253 248 238 238 238 237 236 236 241 244 246 245 240 239 237 238
227 230 233 237 241 243 247 250 254 261 267 268 271 270 269 277 278 279 278 280 277 275 259 254 252 254 254 248 237 231 233 235 242 243 242 241 242 240 232 227 228 232 234
241 246 248 248 247 249 253 257 262 268 271 271 268 269 271 272 278 276 277 283 280 275 263 254 251 249 244 240 239 238 242 245 245 243 240 236 235 235 231 227 228 232 232
248 252 252 248 246 250 254 257 260 265 267 267 266 265 266 267 275 276 272 280 277 267 252 240 234 238 238 240 244 251 254 247 244 240 240 236 231 229 226 225 228 232 235
241 240 235 235 239 246 255 261 264 268 271 271 271 270 266 260 270 280 273 271 269 258 246 235 239 239 241 242 249 252 254 247 241 238 238 234 230 230 225 229 232 237 241
230 230 234 244 248 254 264 270 276 275 272 274 275 272 264 263 273 277 271 264 266 251 234 236 240 243 248 250 250 249 246 244 240 241 241 237 234 234 234 232 232 243 250
246 249 251 252 253 257 264 273 277 274 268 268 271 272 270 268 266 268 262 256 257 234 236 241 245 248 249 250 250 250 249 246 244 244 245 241 237 237 239 242 245 251 255
261 261 262 264 265 267 272 279 283 279 274 272 272 277 276 267 267 263 256 252 251 235 241 241 245 246 250 251 251 251 250 248 245 247 248 247 243 240 244 246 247 250 253
274 272 273 271 271 273 279 284 290 286 284 275 274 275 274 269 267 263 254 247 240 236 241 238 246 245 244 249 252 254 252 246 249 248 248 248 249 248 249 251 253 257 259
278 280 278 277 276 275 276 282 286 289 287 289 285 275 270 270 264 261 254 249 249 250 249 239 241 249 249 252 254 254 252 249 250 250 250 249 249 251 253 253 254 257 260
278 278 277 279 279 280 279 276 275 283 285 289 291 292 280 266 261 259 258 255 254 257 257 256 238 248 252 254 256 256 255 253 253 254 255 255 254 255 256 254 254 255 259
273 273 273 276 279 282 283 279 277 277 281 288 293 294 288 274 267 264 264 264 263 263 264 264 262 249 255 256 257 257 256 256 255 256 257 257 256 257 259 258 255 255 257
281 280 279 279 282 280 281 279 277 278 281 285 288 289 285 278 280 275 272 271 270 268 269 270 267 261 257 262 258 257 257 258 258 257 258 259 260 259 258 259 258 256 256
287 283 279 276 278 281 280 278 278 280 282 284 286 288 286 282 281 282 282 280 277 276 273 270 269 268 265 263 260 259 258 258 261 262 261 262 261 260 260 261 260 258 256
296 291 291 290 286 282 282 281 281 283 285 287 288 289 289 288 286 284 284 284 281 277 274 272 270 270 269 266 262 258 258 257 260 261 262 262 261 259 258 258 258 258 256
310 309 300 295 292 290 287 284 283 284 286 288 288 287 287 286 285 285 283 281 280 279 278 276 274 273 271 268 266 264 264 261 259 260 259 259 260 260 258 257 256 256 254
305 305 305 304 302 301 300 296 292 290 287 286 286 286 288 290 289 288 286 286 285 284 281 279 277 275 274 273 270 267 266 265 263 260 259 258 257 257 257 256 254 253 250
Height
1500 1502 1505 1508 1510 1513 1515 1517 1519 1520 1521 1524 1526 1529 1531 1531 1531 1532 1532 1532 1533 1534 1535 1533 1532 1532 1532 1532 1534 1535 1535 1536 1536 1535 1538 1537 1538 1538 1539 1539 1539 1539 1540
1497 1499 1503 1504 1507 1510 1510 1512 1513 1515 1516 1518 1521 1522 1523 1525 1525 1526 1525 1526 1526 1526 1526 1525 1524 1524 1525 1525 1526 1528 1529 1530 1529 1533 1533 1532 1532 1533 1534 1533 1535 1536 1537
1493 1496 1499 1501 1501 1504 1505 1506 1509 1511 1511 1514 1516 1517 1519 1519 1520 1520 1521 1521 1521 1520 1520 1518 1517 1516 1518 1518 1519 1520 1521 1522 1522 1523 1526 1526 1526 1528 1528 1527 1531 1531 1532
1490 1492 1495 1495 1498 1499 1503 1503 1507 1509 1510 1511 1513 1513 1515 1516 1516 1516 1515 1516 1515 1513 1513 1512 1511 1509 1511 1511 1513 1515 1516 1516 1517 1518 1519 1519 1521 1522 1523 1524 1525 1525 1529
1487 1489 1492 1494 1497 1500 1501 1504 1505 1506 1508 1510 1509 1509 1511 1513 1512 1510 1510 1510 1509 1507 1505 1504 1504 1505 1505 1506 1507 1508 1509 1510 1511 1513 1514 1515 1516 1516 1518 1519 1520 1521 1524
1485 1488 1491 1494 1496 1498 1500 1504 1504 1504 1506 1506 1506 1508 1508 1508 1507 1505 1505 1504 1503 1501 1498 1498 1499 1499 1500 1501 1502 1501 1504 1504 1506 1509 1511 1511 1511 1511 1514 1514 1516 1517 1521
1485 1489 1492 1494 1496 1497 1500 1502 1502 1502 1503 1503 1505 1505 1504 1504 1504 1502 1501 1499 1498 1497 1496 1494 1495 1494 1496 1497 1496 1498 1497 1500 1502 1503 1505 1507 1509 1508 1509 1511 1512 1513 1516
1486 1489 1491 1493 1495 1496 1498 1499 1499 1500 1501 1502 1502 1501 1500 1500 1500 1499 1498 1495 1494 1493 1492 1491 1490 1490 1492 1493 1493 1494 1493 1495 1498 1499 1500 1503 1505 1505 1506 1507 1508 1509 1511
1485 1487 1490 1492 1493 1494 1495 1496 1497 1497 1497 1498 1498 1498 1497 1497 1496 1495 1493 1493 1489 1490 1488 1487 1486 1487 1489 1490 1489 1490 1490 1493 1495 1495 1496 1500 1501 1501 1502 1502 1503 1504 1506
1484 1486 1488 1490 1491 1491 1492 1493 1493 1494 1494 1494 1494 1493 1492 1492 1491 1491 1490 1488 1487 1485 1485 1484 1484 1485 1486 1486 1486 1487 1488 1491 1492 1493 1494 1496 1497 1497 1497 1497 1498 1499 1501
1482 1484 1485 1486 1487 1488 1489 1490 1490 1490 1490 1490 1490 1489 1489 1489 1488 1487 1486 1485 1483 1482 1480 1481 1481 1482 1483 1483 1483 1485 1487 1488 1489 1491 1492 1492 1493 1493 1493 1493 1494 1495 1497
1480 1481 1482 1483 1484 1485 1486 1486 1487 1486 1486 1486 1486 1485 1485 1484 1484 1483 1482 1481 1479 1478 1477 1478 1478 1479 1480 1481 1482 1484 1484 1485 1487 1489 1490 1489 1489 1489 1490 1489 1491 1492 1494
1476 1477 1478 1479 1481 1482 1483 1483 1482 1482 1482 1482 1482 1481 1480 1480 1480 1479 1477 1476 1475 1475 1475 1475 1476 1478 1479 1480 1481 1481 1481 1483 1484 1485 1486 1486 1486 1486 1486 1486 1488 1489 1491
1473 1474 1475 1476 1477 1479 1478 1479 1478 1477 1477 1477 1476 1475 1474 1474 1475 1474 1473 1472 1472 1472 1473 1473 1475 1476 1477 1478 1478 1479 1479 1480 1481 1482 1483 1483 1483 1483 1484 1484 1485 1487 1488
1471 1472 1473 1473 1474 1474 1474 1474 1473 1473 1472 1471 1471 1470 1469 1469 1470 1469 1469 1468 1469 1469 1470 1471 1472 1473 1473 1474 1475 1476 1477 1478 1478 1479 1479 1479 1479 1480 1481 1482 1483 1484 1485
1468 1468 1468 1469 1469 1469 1469 1469 1469 1467 1466 1466 1466 1465 1465 1464 1464 1464 1464 1464 1465 1465 1466 1467 1468 1469 1470 1471 1472 1473 1474 1475 1475 1476 1476 1476 1477 1477 1478 1479 1480 1480 1481
1465 1465 1465 1465 1465 1465 1464 1464 1463 1462 1461 1461 1460 1460 1459 1459 1459 1459 1459 1459 1460 1461 1460 1463 1464 1465 1466 1468 1469 1469 1470 1471 1472 1471 1472 1473 1473 1474 1475 1476 1476 1477 1478
1461 1461 1461 1461 1460 1459 1459 1458 1458 1457 1456 1456 1456 1455 1454 1453 1453 1454 1454 1455 1455 1454 1455 1458 1459 1460 1462 1463 1464 1465 1466 1466 1466 1467 1468 1468 1469 1470 1470 1471 1472 1473 1473
1457 1457 1456 1456 1456 1455 1454 1453 1453 1452 1451 1450 1449 1449 1448 1448 1448 1448 1448 1448 1448 1448 1449 1450 1453 1455 1457 1458 1459 1460 1460 1461 1461 1462 1462 1463 1464 1464 1465 1466 1466 1467 1468
1452 1452 1452 1451 1450 1450 1449 1448 1448 1447 1446 1445 1443 1443 1443 1442 1442 1442 1442 1442 1442 1442 1443 1444 1446 1447 1450 1452 1453 1453 1454 1454 1455 1455 1456 1457 1458 1458 1459 1460 1460 1461 1461
1447 1447 1446 1446 1445 1445 1444 1443 1442 1441 1440 1439 1438 1438 1437 1436 1436 1435 1435 1435 1436 1436 1436 1437 1439 1441 1443 1444 1445 1446 1446 1447 1448 1448 1449 1450 1451 1451 1452 1453 1453 1454 1455
1442 1441 1440 1440 1439 1439 1438 1437 1436 1435 1434 1434 1433 1432 1432 1430 1429 1429 1429 1428 1429 1429 1430 1431 1432 1433 1435 1436 1437 1438 1438 1439 1440 1440 1441 1442 1443 1444 1444 1445 1446 1446 1447
1436 1435 1434 1434 1433 1433 1432 1431 1430 1429 1429 1428 1427 1426 1426 1425 1424 1423 1423 1422 1422 1422 1422 1423 1423 1424 1425 1426 1427 1428 1428 1430 1431 1433 1433 1433 1434 1435 1435 1436 1437 1438 1439
1431 1430 1429 1428 1428 1427 1426 1425 1424 1424 1423 1422 1422 1421 1420 1419 1418 1418 1417 1416 1416 1415 1415 1415 1415 1415 1415 1416 1416 1418 1419 1421 1422 1422 1423 1423 1424 1425 1425 1426 1427 1429 1430
1427 1426 1425 1424 1423 1422 1421 1420 1419 1418 1417 1417 1416 1415 1414 1413 1412 1411 1410 1409 1408 1408 1407 1407 1406 1406 1405 1406 1406 1406 1407 1409 1410 1411 1412 1412 1412 1413 1414 1415 1417 1419 1421
1423 1422 1421 1420 1419 1418 1417 1416 1414 1413 1412 1411 1410 1409 1408 1407 1406 1405 1403 1402 1401 1400 1399 1398 1397 1396 1396 1395 1395 1396 1396 1396 1397 1398 1399 1399 1399 1400 1402 1403 1406 1407 1410